Zurück zum Katalog

STARLINK-11129

AktivKommunikationVLEO
NORAD 60038·PAYLOAD·🇺🇸 United States

Gestartet Jun 8, 2024 von Vandenberg Space Force Base

Loading…

Nächste Überflüge (nächste 24 Stunden)

TLE

AktuellSource: CelesTrak SupGP

Epoche: Sep 14, 2026, 20:42 UTC

1 60038C 24112A   26257.86298611  .00068045  00000+0  56057-3 0  2575
2 60038  53.1579  54.0436 0001070  79.2090  91.0189 15.69673082    12

Verfolge STARLINK-11129 in Echtzeit mit AllMySat

Download on the App Store